Tracking 28052 objects as of 22-Sep-2023
HD Live streaming from Space Station
objects crossing your sky now

DELTA 1 DEB

Track DELTA 1 DEB now!
10-day predictions


NORAD ID: 13539
Int'l Code: 1976-077EM
Perigee: 1,508.9 km
Apogee: 2,185.7 km
Inclination: 101.8 °
Period: 123.6 minutes
Semi major axis: 8218 km
RCS: 0.0923 m2 (small)
Launch date: July 29, 1976
Source: United States (US)
Launch site: AIR FORCE WESTERN TEST RANGE (AFWTR)

Note: This is SATELLITE DEBRIS
Your satellite tracking list
Your tracking list is empty




NASA's NSSDC Master Catalog

Two Line Element Set (TLE):
1 13539U 76077EM  23264.02380402  .00000031  00000-0  10219-2 0  9993
2 13539 101.8449 114.3481 0411740 247.4038 279.9081 11.65275045837243
Source of the keplerian elements: AFSPC